Latest Coastal Weather Observations for Rowley Shoals

IDW60701

Issued at 2:02 pm WST Tuesday 28 July 2015 (issued every 10 minutes, with the page automatically refreshed every 10 minutes)

About coastal observations | Map of coastal stations | Coastal observations for WA | Marine services | Other Formats
Station Details ID: 200713 Name: ROWLEY SHOALS Lat: -17.52 Lon: 118.95 Height: 0.0 m
Data from the previous 72 hours. | See also: Recent months for locations in Western Australia
Date/Time
WST
Temp

°C
Wind Pressure Rain
since 9am
mm
Weather Cloud Vis
km
Sea
Height
m
Swell
Dir
 
Speed
knots
Gust
knots
hPa Trend Height
m
Period
s
Dir
28/01:30pm - E 13 15 1017.1 - - - - - - - - -
28/01:00pm - E 13 15 1017.3 - - - - - - - - -
28/12:30pm - E 14 16 1017.6 - - - - - - - - -
28/12:00pm - E 15 17 1017.9 - - - - - - - - -
28/11:30am - E 15 18 1018.2 - - - - - - - - -
28/11:00am - E 15 17 1018.4 - - - - - - - - -
28/10:30am - E 14 17 1018.7 - - - - - - - - -
28/10:00am - E 16 19 1018.8 - - - - - - - - -
28/09:30am - ESE 15 18 1019.0 - - - - - - - - -
28/09:00am - ESE 16 19 1019.0 - - - - - - - - -
28/08:30am - ESE 16 19 1018.8 - - - - - - - - -
28/08:00am - ESE 16 18 1018.6 - - - - - - - - -
28/07:30am - ESE 16 19 1018.4 - - - - - - - - -
28/07:00am - ESE 16 19 1018.2 - - - - - - - - -
28/06:30am - ESE 15 17 1017.8 - - - - - - - - -
28/06:00am - ESE 15 18 1017.4 - - - - - - - - -
28/05:30am - SE 15 17 1017.0 - - - - - - - - -
28/05:00am - SE 15 19 1016.8 - - - - - - - - -
28/04:30am - SE 15 17 1016.6 - - - - - - - - -
28/04:00am - SE 15 18 1016.7 - - - - - - - - -
28/03:30am - SE 15 17 1016.8 - - - - - - - - -
28/03:00am - SE 15 17 1016.9 - - - - - - - - -
28/02:30am - SE 15 17 1017.1 - - - - - - - - -
28/02:00am - SE 16 19 1017.2 - - - - - - - - -
28/01:30am - SE 16 19 1017.4 - - - - - - - - -
28/01:00am - SSE 16 19 1017.6 - - - - - - - - -
28/12:30am - SSE 14 16 1017.9 - - - - - - - - -
28/12:00am - SSE 13 16 1018.1 - - - - - - - - -
 
Date/Time
WST
Temp

°C
Wind Pressure Rain
since 9am
mm
Weather Cloud Vis
km
Sea
Height
m
Swell
Dir
 
Speed
knots
Gust
knots
hPa Trend Height
m
Period
s
Dir
27/11:30pm - SSE 13 15 1018.3 - - - - - - - - -
27/11:00pm - SSE 13 15 1018.3 - - - - - - - - -
27/10:30pm - SSE 14 16 1018.3 - - - - - - - - -
27/10:00pm - SE 14 16 1018.3 - - - - - - - - -
27/09:30pm - SE 14 16 1018.3 - - - - - - - - -
27/09:00pm - SE 15 17 1018.3 - - - - - - - - -
27/08:30pm - SE 15 17 1018.3 - - - - - - - - -
27/08:00pm - SE 16 19 1018.2 - - - - - - - - -
27/07:30pm - SE 16 19 1017.9 - - - - - - - - -
27/07:00pm - SE 17 19 1017.6 - - - - - - - - -
27/06:30pm - SE 18 21 1017.3 - - - - - - - - -
27/06:00pm - SE 18 21 1017.1 - - - - - - - - -
27/05:30pm - SE 18 21 1016.8 - - - - - - - - -
27/05:00pm - SE 19 21 1016.6 - - - - - - - - -
27/04:30pm - SE 20 24 1016.2 - - - - - - - - -
27/04:00pm - SE 19 23 1016.1 - - - - - - - - -
27/03:30pm - SE 19 22 1016.6 - - - - - - - - -
27/03:00pm - SE 19 22 1016.6 - - - - - - - - -
27/02:30pm - SE 19 22 1016.7 - - - - - - - - -
27/02:00pm - ESE 20 22 1016.9 - - - - - - - - -
27/01:30pm - ESE 19 22 1017.2 - - - - - - - - -
27/01:00pm - ESE 20 23 1017.5 - - - - - - - - -
27/12:30pm - ESE 21 25 1018.2 - - - - - - - - -
27/12:00pm - ESE 22 25 1018.5 - - - - - - - - -
27/11:30am - ESE 22 25 1018.7 - - - - - - - - -
27/11:00am - ESE 22 26 1019.0 - - - - - - - - -
27/10:30am - ESE 22 27 1019.4 - - - - - - - - -
27/10:00am - ESE 24 28 1019.4 - - - - - - - - -
27/09:30am - ESE 24 28 1019.5 - - - - - - - - -
27/09:00am - ESE 24 29 1019.6 - - - - - - - - -
27/08:30am - E 24 29 1019.6 - - - - - - - - -
27/08:00am - ESE 23 27 1019.6 - - - - - - - - -
27/07:30am - ESE 22 28 1019.4 - - - - - - - - -
27/07:00am - ESE 23 27 1019.1 - - - - - - - - -
27/06:30am - ESE 24 28 1018.7 - - - - - - - - -
27/06:00am - ESE 24 28 1018.6 - - - - - - - - -
27/05:30am - ESE 24 27 1018.3 - - - - - - - - -
27/05:00am - ESE 25 30 1018.2 - - - - - - - - -
27/04:30am - ESE 24 29 1018.0 - - - - - - - - -
27/04:00am - SE 24 28 1018.0 - - - - - - - - -
27/03:30am - ESE 23 27 1018.1 - - - - - - - - -
27/03:00am - ESE 24 29 1018.1 - - - - - - - - -
27/02:30am - SE 24 29 1018.2 - - - - - - - - -
27/02:00am - ESE 23 27 1018.3 - - - - - - - - -
27/01:30am - SE 23 28 1018.5 - - - - - - - - -
27/01:00am - SE 23 26 1018.7 - - - - - - - - -
27/12:30am - SE 23 26 1018.7 - - - - - - - - -
27/12:00am - SE 23 27 1018.8 - - - - - - - - -
 
Date/Time
WST
Temp

°C
Wind Pressure Rain
since 9am
mm
Weather Cloud Vis
km
Sea
Height
m
Swell
Dir
 
Speed
knots
Gust
knots
hPa Trend Height
m
Period
s
Dir
26/11:30pm - SE 22 27 1019.2 - - - - - - - - -
26/11:00pm - SE 21 24 1019.2 - - - - - - - - -
26/10:30pm - SE 19 22 1019.4 - - - - - - - - -
26/10:00pm - SE 19 22 1019.5 - - - - - - - - -
26/09:30pm - SE 19 21 1019.5 - - - - - - - - -
26/09:00pm - SE 19 22 1019.6 - - - - - - - - -
26/08:30pm - SE 19 23 1019.6 - - - - - - - - -
26/08:00pm - SE 20 23 1019.3 - - - - - - - - -
26/07:30pm - SE 20 22 1018.9 - - - - - - - - -
26/07:00pm - SE 20 23 1018.7 - - - - - - - - -
26/06:30pm - SE 19 22 1018.5 - - - - - - - - -
26/06:00pm - SE 20 23 1018.2 - - - - - - - - -
26/05:30pm - SE 19 23 1017.9 - - - - - - - - -
26/05:00pm - SE 19 22 1017.6 - - - - - - - - -
26/04:30pm - ESE 19 21 1017.3 - - - - - - - - -
26/04:00pm - ESE 18 21 1017.1 - - - - - - - - -
26/03:30pm - ESE 19 21 1017.1 - - - - - - - - -
26/03:00pm - ESE 19 22 1017.1 - - - - - - - - -
26/02:30pm - ESE 19 21 1017.4 - - - - - - - - -
26/02:00pm - ESE 19 23 1017.5 - - - - - - - - -
26/01:30pm - ESE 19 23 1017.6 - - - - - - - - -
26/01:00pm - ESE 21 24 1017.7 - - - - - - - - -
26/12:30pm - ESE 21 24 1018.3 - - - - - - - - -
26/12:00pm - E 22 26 1018.4 - - - - - - - - -
26/11:30am - ESE 23 27 1019.0 - - - - - - - - -
26/11:00am - ESE 24 27 1019.4 - - - - - - - - -
26/10:30am - ESE 24 28 1019.9 - - - - - - - - -
26/10:00am - ESE 23 27 1019.9 - - - - - - - - -
26/09:30am - ESE 23 27 1020.2 - - - - - - - - -
26/09:00am - ESE 23 27 1020.2 - - - - - - - - -
26/08:30am - ESE 23 28 1019.9 - - - - - - - - -
26/08:00am - ESE 25 29 1019.8 - - - - - - - - -
26/07:30am - ESE 25 28 1019.2 - - - - - - - - -
26/07:00am - ESE 24 28 1019.1 - - - - - - - - -
26/06:30am - ESE 23 28 1018.9 - - - - - - - - -
26/06:00am - ESE 22 27 1018.5 - - - - - - - - -
26/05:30am - SE 25 29 1017.9 - - - - - - - - -
26/05:00am - SE 25 29 1017.9 - - - - - - - - -
26/04:30am - SE 25 30 1017.6 - - - - - - - - -
26/04:00am - SE 25 30 1017.4 - - - - - - - - -
26/03:30am - SE 23 28 1017.0 - - - - - - - - -
26/03:00am - SE 22 26 1017.0 - - - - - - - - -
26/02:30am - SE 20 24 1017.2 - - - - - - - - -
26/02:00am - SE 19 23 1017.2 - - - - - - - - -
26/01:30am - SE 17 20 1017.3 - - - - - - - - -
26/01:00am - SE 14 17 1017.6 - - - - - - - - -
26/12:30am - SE 12 13 1017.8 - - - - - - - - -
26/12:00am - SE 11 13 1018.0 - - - - - - - - -
 
Date/Time
WST
Temp

°C
Wind Pressure Rain
since 9am
mm
Weather Cloud Vis
km
Sea
Height
m
Swell
Dir
 
Speed
knots
Gust
knots
hPa Trend Height
m
Period
s
Dir
25/11:30pm - SE 11 13 1018.0 - - - - - - - - -
25/11:00pm - SE 11 13 1018.2 - - - - - - - - -
25/10:30pm - SE 13 15 1018.5 - - - - - - - - -
25/10:00pm - SE 12 15 1018.5 - - - - - - - - -
25/09:30pm - SE 13 15 1018.4 - - - - - - - - -
25/09:00pm - SE 15 17 1018.5 - - - - - - - - -
25/08:30pm - SE 15 16 1018.4 - - - - - - - - -
25/08:00pm - SE 15 17 1018.3 - - - - - - - - -
25/07:30pm - SE 15 17 1017.8 - - - - - - - - -
25/07:00pm - SE 14 16 1017.4 - - - - - - - - -
25/06:30pm - ESE 15 17 1016.7 - - - - - - - - -
25/06:00pm - ESE 15 17 1016.5 - - - - - - - - -
25/05:30pm - ESE 15 17 1016.1 - - - - - - - - -
25/05:00pm - ESE 15 17 1016.0 - - - - - - - - -
25/04:30pm - ESE 15 18 1015.5 - - - - - - - - -
25/04:00pm - ESE 15 18 1015.3 - - - - - - - - -
25/03:30pm - ESE 16 19 1015.2 - - - - - - - - -
25/03:00pm - ESE 16 19 1015.2 - - - - - - - - -
25/02:30pm - ESE 16 19 1015.6 - - - - - - - - -

Other Formats:

Comma delimited format used in spreadsheet applications
http://www.bom.gov.au/fwo/IDW60701/IDW60701.94207.axf

JavaScript Object Notation format (JSON) in row-major order
http://www.bom.gov.au/fwo/IDW60701/IDW60701.94207.json